Location: Babice
(50.3480°N, 22.9363°E)
Time: 01:36:02
(UTC+00:00)

Cosmos 614 Rocket - Pass Details

Date: 14 July 2020
Orbit: 732 x 764 km, 74.1° (Epoch: 06 August)

Event Time Altitude Azimuth Distance (km) Brightness Sun altitude
Exits shadow 00:43:21 17° 226° (SW) 1,814 5.3 -12.6°
Maximum altitude 00:47:09 53° 299° (WNW) 909 4.4 -12.3°
Drops below altitude 10° 00:52:12 10° 17° (NNE) 2,275 7.8 -11.8°
Sets 00:54:39 0° 22° (NNE) 3,209 9.1 -11.6°
